When you browse on this site, cookies collect data to enhance your experience and personalize the content and advertising you see.
Visit our Privacy Policy to learn more. By continuing to use the site, you agree to this use of cookies and data.
  • In Hungary
  • List of Countries
  • For 7 days
  • Water Temperature
  • Weather Map
  • News
  • Weather Widgets
  • user-avatar
    Login

    Hourly Weather Selco 2

    Today, 16 December, Monday

    Time Temperature Precipitation Wind Pressure Humidity
    00:00 0°C° 0 mm 5 mps 740 mmHg 90%
    01:00 0°C° 0 mm 5 mps 740 mmHg 91%
    02:00 +1°C° 0 mm 6 mps 739 mmHg 94%
    03:00 +1°C° 0 mm 6 mps 739 mmHg 91%
    04:00 +1°C° 0 mm 6 mps 739 mmHg 88%
    05:00 +1°C° 0 mm 5 mps 739 mmHg 84%
    06:00 +1°C° 0 mm 6 mps 739 mmHg 82%
    07:00 +1°C° 0 mm 6 mps 739 mmHg 80%
    08:00 0°C° 0 mm 7 mps 739 mmHg 78%
    09:00 +1°C° 0.1 mm 8 mps 739 mmHg 80%
    10:00 +1°C° 0.1 mm 9 mps 740 mmHg 81%
    11:00 +1°C° 0.1 mm 9 mps 740 mmHg 83%
    12:00 +1°C° 0 mm 9 mps 741 mmHg 78%
    13:00 +2°C° 0 mm 9 mps 742 mmHg 73%
    14:00 +2°C° 0 mm 8 mps 743 mmHg 68%
    15:00 +2°C° 0 mm 7 mps 743 mmHg 73%
    16:00 +2°C° 0 mm 7 mps 744 mmHg 77%
    17:00 +2°C° 0 mm 6 mps 745 mmHg 81%
    18:00 +1°C° 0 mm 5 mps 745 mmHg 83%
    19:00 +1°C° 0 mm 5 mps 746 mmHg 86%
    20:00 +1°C° 0 mm 5 mps 746 mmHg 88%
    21:00 0°C° 0 mm 4 mps 746 mmHg 89%
    22:00 0°C° 0 mm 4 mps 747 mmHg 91%
    23:00 -1°C° 0 mm 4 mps 747 mmHg 93%

    Tomorrow, 17 December, Tuesday

    Time Temperature Precipitation Wind Pressure Humidity
    00:00 -1°C° 0 mm 4 mps 747 mmHg 93%
    01:00 -1°C° 0 mm 4 mps 747 mmHg 93%
    02:00 -1°C° 0 mm 4 mps 747 mmHg 93%
    03:00 0°C° 0 mm 4 mps 747 mmHg 91%
    04:00 0°C° 0 mm 4 mps 746 mmHg 89%
    05:00 0°C° 0 mm 4 mps 746 mmHg 87%
    06:00 +1°C° 0.1 mm 4 mps 745 mmHg 88%
    07:00 +1°C° 0.1 mm 4 mps 745 mmHg 88%
    08:00 +1°C° 0.1 mm 4 mps 745 mmHg 89%
    09:00 +1°C° 0.5 mm 4 mps 745 mmHg 91%
    10:00 +1°C° 0.5 mm 4 mps 745 mmHg 93%
    11:00 +3°C° 0.5 mm 3 mps 745 mmHg 95%
    12:00 +3°C° 0.3 mm 3 mps 745 mmHg 95%
    13:00 +3°C° 0.3 mm 3 mps 745 mmHg 95%
    14:00 +4°C° 0.3 mm 2 mps 745 mmHg 94%
    15:00 +4°C° 0 mm 2 mps 745 mmHg 95%
    16:00 +4°C° 0 mm 2 mps 745 mmHg 95%
    17:00 +4°C° 0 mm 2 mps 745 mmHg 96%
    18:00 +4°C° 0.1 mm 2 mps 745 mmHg 96%
    19:00 +4°C° 0.1 mm 2 mps 746 mmHg 96%
    20:00 +5°C° 0.1 mm 1 mps 746 mmHg 97%
    21:00 +4°C° 0 mm 2 mps 746 mmHg 97%
    22:00 +4°C° 0 mm 2 mps 746 mmHg 97%
    23:00 +4°C° 0 mm 2 mps 746 mmHg 96%

    Day after tomorrow, 18 December, Wednesday

    Time Temperature Precipitation Wind Pressure Humidity
    00:00 +4°C° 0 mm 2 mps 746 mmHg 96%
    01:00 +4°C° 0 mm 2 mps 746 mmHg 96%
    02:00 +4°C° 0 mm 2 mps 746 mmHg 96%
    03:00 +3°C° 0 mm 3 mps 745 mmHg 95%
    04:00 +3°C° 0 mm 3 mps 745 mmHg 94%
    05:00 +3°C° 0 mm 3 mps 745 mmHg 94%
    06:00 +3°C° 0 mm 3 mps 745 mmHg 93%
    07:00 +3°C° 0 mm 3 mps 744 mmHg 92%
    08:00 +3°C° 0 mm 3 mps 744 mmHg 92%
    09:00 +3°C° 0 mm 3 mps 744 mmHg 91%
    10:00 +4°C° 0 mm 4 mps 744 mmHg 90%
    11:00 +4°C° 0 mm 4 mps 744 mmHg 89%
    12:00 +4°C° 0 mm 4 mps 744 mmHg 89%
    13:00 +4°C° 0 mm 4 mps 743 mmHg 89%
    14:00 +5°C° 0 mm 4 mps 743 mmHg 89%
    15:00 +4°C° 0 mm 4 mps 743 mmHg 90%
    16:00 +3°C° 0 mm 5 mps 743 mmHg 91%
    17:00 +3°C° 0 mm 5 mps 743 mmHg 92%
    18:00 +3°C° 0 mm 5 mps 743 mmHg 90%
    19:00 +4°C° 0 mm 6 mps 744 mmHg 89%
    20:00 +4°C° 0 mm 6 mps 744 mmHg 87%
    21:00 +3°C° 0 mm 6 mps 745 mmHg 86%
    22:00 +3°C° 0 mm 6 mps 745 mmHg 85%
    23:00 +2°C° 0 mm 6 mps 745 mmHg 85%

    19 December, Thursday

    Time Temperature Precipitation Wind Pressure Humidity
    00:00 +2°C° 0 mm 6 mps 746 mmHg 83%
    01:00 +2°C° 0 mm 6 mps 746 mmHg 81%
    02:00 +2°C° 0 mm 6 mps 747 mmHg 79%
    03:00 +2°C° 0 mm 6 mps 747 mmHg 80%
    04:00 +2°C° 0 mm 6 mps 747 mmHg 80%
    05:00 +2°C° 0 mm 6 mps 747 mmHg 81%
    06:00 +2°C° 0 mm 6 mps 748 mmHg 81%
    07:00 +2°C° 0 mm 6 mps 748 mmHg 81%
    08:00 +2°C° 0 mm 6 mps 748 mmHg 80%
    09:00 +2°C° 0 mm 5 mps 749 mmHg 79%
    10:00 +2°C° 0 mm 5 mps 750 mmHg 78%
    11:00 +2°C° 0 mm 5 mps 750 mmHg 77%
    12:00 +2°C° 0 mm 5 mps 751 mmHg 77%
    13:00 +3°C° 0 mm 4 mps 751 mmHg 77%
    14:00 +3°C° 0 mm 4 mps 751 mmHg 78%
    15:00 +2°C° 0 mm 3 mps 751 mmHg 82%
    16:00 +1°C° 0 mm 3 mps 752 mmHg 87%
    17:00 +1°C° 0 mm 2 mps 752 mmHg 92%
    18:00 +1°C° 0 mm 2 mps 752 mmHg 93%
    19:00 -1°C° 0 mm 2 mps 753 mmHg 94%
    20:00 -1°C° 0 mm 2 mps 753 mmHg 95%
    21:00 -1°C° 0 mm 2 mps 753 mmHg 95%
    22:00 -1°C° 0 mm 2 mps 753 mmHg 95%
    23:00 -1°C° 0 mm 2 mps 753 mmHg 95%

    20 December, Friday

    Time Temperature Precipitation Wind Pressure Humidity
    00:00 +1°C° 0 mm 1 mps 753 mmHg 94%
    01:00 +1°C° 0 mm 1 mps 753 mmHg 93%
    02:00 0°C° 0 mm 0 mps 753 mmHg 92%
    03:00 0°C° 0 mm 0 mps 753 mmHg 92%
    04:00 +1°C° 0 mm 1 mps 753 mmHg 91%
    05:00 +1°C° 0 mm 1 mps 753 mmHg 90%
    06:00 +1°C° 0 mm 1 mps 753 mmHg 89%
    07:00 0°C° 0 mm 1 mps 753 mmHg 89%
    08:00 -2°C° 0 mm 2 mps 752 mmHg 88%
    09:00 -1°C° 0 mm 2 mps 752 mmHg 84%
    10:00 -1°C° 0 mm 2 mps 752 mmHg 80%
    11:00 0°C° 0 mm 3 mps 753 mmHg 76%
    12:00 0°C° 0 mm 3 mps 752 mmHg 74%
    13:00 0°C° 0 mm 3 mps 751 mmHg 72%
    14:00 +1°C° 0 mm 3 mps 751 mmHg 71%
    15:00 0°C° 0 mm 3 mps 751 mmHg 71%
    16:00 -1°C° 0 mm 4 mps 750 mmHg 72%
    17:00 -1°C° 0 mm 4 mps 750 mmHg 72%
    18:00 -1°C° 0 mm 4 mps 750 mmHg 70%
    19:00 -1°C° 0 mm 4 mps 749 mmHg 67%
    20:00 -1°C° 0 mm 4 mps 749 mmHg 64%
    21:00 -1°C° 0 mm 5 mps 749 mmHg 63%
    22:00 -1°C° 0 mm 5 mps 749 mmHg 61%
    23:00 -1°C° 0 mm 5 mps 748 mmHg 60%

    21 December, Saturday

    Time Temperature Precipitation Wind Pressure Humidity
    00:00 -1°C° 0 mm 5 mps 748 mmHg 58%
    01:00 -1°C° 0 mm 5 mps 748 mmHg 57%
    02:00 -1°C° 0 mm 5 mps 747 mmHg 56%
    03:00 -1°C° 0 mm 5 mps 747 mmHg 57%
    04:00 -1°C° 0 mm 4 mps 747 mmHg 57%
    05:00 -1°C° 0 mm 4 mps 746 mmHg 58%
    06:00 -1°C° 0 mm 4 mps 746 mmHg 59%
    07:00 -1°C° 0 mm 5 mps 746 mmHg 60%
    08:00 -1°C° 0 mm 5 mps 746 mmHg 61%
    09:00 -1°C° 0 mm 5 mps 746 mmHg 62%
    10:00 -1°C° 0 mm 5 mps 746 mmHg 64%
    11:00 -1°C° 0 mm 5 mps 746 mmHg 66%
    12:00 -1°C° 0 mm 5 mps 745 mmHg 68%
    13:00 0°C° 0 mm 5 mps 745 mmHg 70%
    14:00 0°C° 0 mm 4 mps 745 mmHg 72%
    15:00 0°C° 0 mm 5 mps 745 mmHg 74%
    16:00 -1°C° 0 mm 5 mps 745 mmHg 76%
    17:00 -1°C° 0 mm 5 mps 745 mmHg 78%
    18:00 -1°C° 0 mm 5 mps 744 mmHg 81%
    19:00 -1°C° 0 mm 5 mps 744 mmHg 84%
    20:00 -1°C° 0 mm 5 mps 744 mmHg 87%
    21:00 -1°C° 0 mm 4 mps 744 mmHg 88%
    22:00 0°C° 0 mm 4 mps 744 mmHg 90%
    23:00 0°C° 0 mm 4 mps 744 mmHg 92%
    Show more